,,PA_Meas_PMT16A,,PR_Meas_QMR101_102,,RH_Meas_QMH101,,SR_Meas_QMS101,,TA_Meas_QMH101,,GenWind,,GenWind,
time,status,PA,status,PR,status,RH,status,SR,status,TA,status,DirAvg,status,SpdAvg,
2017-01-01, 14:39:04,VALID,916.163,VALID,0,INVALID,127.471,VALID,165.244,VALID,20.3089,VALID,150,VALID,2.25352,
2017-01-01, 14:40:04,VALID,916.195,VALID,0,INVALID,128.195,VALID,169.112,VALID,20.3089,VALID,154,VALID,2.40664,
2017-01-01, 14:41:04,VALID,916.208,VALID,0,INVALID,128.622,VALID,173.303,VALID,20.3284,VALID,152,VALID,2.28984,
2017-01-01, 14:42:04,VALID,916.187,VALID,0,INVALID,128.538,VALID,175.989,VALID,20.4049,VALID,150,VALID,2.11914,
2017-01-01, 14:43:04,VALID,916.223,VALID,0,INVALID,127.822,VALID,178.782,VALID,20.4244,VALID,157,VALID,2.13945,
2017-01-01, 14:44:04,VALID,916.251,VALID,0,INVALID,127.418,VALID,182.113,VALID,20.5024,VALID,159,VALID,2.20742,
2017-01-01, 14:45:04,VALID,916.286,VALID,0,INVALID,126.594,VALID,187.162,VALID,20.5609,VALID,156,VALID,2.02031,
2017-01-01, 14:46:04,VALID,916.249,VALID,0,INVALID,126.29,VALID,189.311,VALID,20.6405,VALID,138,VALID,1.35312,
2017-01-01, 14:47:04,VALID,916.284,VALID,0,INVALID,126.427,VALID,190.815,VALID,20.7739,VALID,131,VALID,0.4875,
2017-01-01, 14:48:04,VALID,916.302,VALID,0,INVALID,125.703,VALID,191.568,VALID,20.8925,VALID,136,VALID,1.72031,
2017-01-01, 14:49:04,VALID,916.307,VALID,0,INVALID,124.185,VALID,194.254,VALID,20.9511,VALID,113,VALID,1.94453,
2017-01-01, 14:50:04,VALID,916.289,VALID,0,INVALID,124.727,VALID,198.874,VALID,21.0681,VALID,129,VALID,1.3457,
2017-01-01, 14:51:04,VALID,916.272,VALID,0,INVALID,124.948,VALID,204.031,VALID,21.1868,VALID,100,VALID,1.98125,
2017-01-01, 14:52:04,VALID,916.314,VALID,0,INVALID,115.632,VALID,208.328,VALID,21.1868,VALID,119,VALID,1.57187,
2017-01-01, 14:53:04,VALID,916.27,VALID,0,VALID,104,VALID,209.188,VALID,21.1868,VALID,111,VALID,1.60391,
2017-01-01, 14:54:04,VALID,916.279,VALID,0,INVALID,112.994,VALID,212.733,VALID,21.2242,VALID,104,VALID,1.88555,
2017-01-01, 14:55:04,VALID,916.315,VALID,0,INVALID,116.127,VALID,217.568,VALID,21.2031,VALID,103,VALID,1.88633,
2017-01-01, 14:56:04,VALID,916.312,VALID,0,INVALID,114.641,VALID,225.304,VALID,21.2031,VALID,111,VALID,1.70625,
2017-01-01, 14:57:04,VALID,916.305,VALID,0,INVALID,118.567,VALID,230.139,VALID,21.2811,VALID,138,VALID,1.32187,
2017-01-01, 14:58:04,VALID,916.298,VALID,0,VALID,104,VALID,234.437,VALID,21.3396,VALID,123,VALID,1.85469,
2017-01-01, 14:59:04,VALID,916.327,VALID,0,VALID,99.478,VALID,240.668,VALID,21.3608,VALID,110,VALID,2.17891,
2017-01-01, 15:00:04,VALID,916.333,VALID,0,INVALID,113.757,VALID,243.784,VALID,21.3786,VALID,105,VALID,1.8207,
2017-01-01, 15:01:04,VALID,916.361,VALID,0,INVALID,115.403,VALID,244.214,VALID,21.4177,VALID,135,VALID,1.40586,
2017-01-01, 15:02:04,VALID,916.333,VALID,0,INVALID,117.347,VALID,242.387,VALID,21.4388,VALID,121,VALID,0.991016,
2017-01-01, 15:03:04,VALID,916.363,VALID,0,INVALID,122.409,VALID,254.313,VALID,21.5949,VALID,117,VALID,1.19375,
2017-01-01, 15:04:04,VALID,916.349,VALID,0,VALID,104,VALID,261.404,VALID,21.6729,VALID,110,VALID,2.04453,
2017-01-01, 15:05:04,VALID,916.375,VALID,0,VALID,102.779,VALID,266.884,VALID,21.6924,VALID,139,VALID,1.27422,
2017-01-01, 15:06:04,VALID,916.402,VALID,0,INVALID,112.804,VALID,271.181,VALID,21.7705,VALID,163,VALID,1.09102,
2017-01-01, 15:07:04,VALID,916.402,VALID,0,VALID,104,VALID,279.454,VALID,21.7493,VALID,146,VALID,1.91914,
2017-01-01, 15:08:04,VALID,916.402,VALID,0,INVALID,109.48,VALID,286.223,VALID,21.8079,VALID,143,VALID,1.40547,
2017-01-01, 15:09:04,VALID,916.403,VALID,0,VALID,102.017,VALID,286.868,VALID,21.9266,VALID,164,VALID,2.37383,
2017-01-01, 15:10:04,VALID,916.438,VALID,0,VALID,97.4577,VALID,286.546,VALID,21.9461,VALID,127,VALID,2.8293,
2017-01-01, 15:11:04,VALID,916.437,VALID,0,VALID,99.9582,VALID,293.422,VALID,21.9656,VALID,144,VALID,2.11328,
2017-01-01, 15:12:04,VALID,916.445,VALID,0,INVALID,113.558,VALID,296.967,VALID,22.1022,VALID,93,VALID,1.9043,
2017-01-01, 15:13:04,VALID,916.468,VALID,0,INVALID,112.163,VALID,306.53,VALID,22.1608,VALID,100,VALID,1.65898,
2017-01-01, 15:14:04,VALID,916.5,VALID,0,VALID,104,VALID,308.571,VALID,22.2762,VALID,113,VALID,0.933203,
2017-01-01, 15:15:04,VALID,916.539,VALID,0,VALID,98.7918,VALID,309.001,VALID,22.4713,VALID,129,VALID,0,
2017-01-01, 15:16:04,VALID,916.546,VALID,0,VALID,95.1555,VALID,311.579,VALID,22.6665,VALID,107,VALID,1.20273,
2017-01-01, 15:17:04,VALID,916.561,VALID,0,VALID,90.7796,VALID,320.175,VALID,22.8031,VALID,91,VALID,1.78203,
2017-01-01, 15:18:04,VALID,916.55,VALID,0,VALID,86.9298,VALID,319.745,VALID,22.5477,VALID,111,VALID,2.31055,
2017-01-01, 15:19:04,VALID,916.565,VALID,0,VALID,94.294,VALID,328.018,VALID,22.5299,VALID,129,VALID,0,
2017-01-01, 15:20:04,VALID,916.601,VALID,0,VALID,92.1442,VALID,336.291,VALID,22.6079,VALID,98,VALID,0,
2017-01-01, 15:21:04,VALID,916.597,VALID,0,VALID,89.72,VALID,337.258,VALID,22.5689,VALID,114,VALID,0.129688,
2017-01-01, 15:22:04,VALID,916.611,VALID,0,VALID,86.1065,VALID,341.018,VALID,22.6274,VALID,106,VALID,1.66133,
2017-01-01, 15:23:04,VALID,916.636,VALID,0,VALID,91.9918,VALID,343.167,VALID,22.686,VALID,148,VALID,0.0140625,
2017-01-01, 15:24:04,VALID,916.659,VALID,0,VALID,87.8751,VALID,344.027,VALID,22.9024,VALID,146,VALID,0,
2017-01-01, 15:25:04,VALID,916.662,VALID,0,VALID,85.9007,VALID,350.151,VALID,23.0586,VALID,175,VALID,1.39297,
2017-01-01, 15:26:04,VALID,916.713,VALID,0,VALID,84.4217,VALID,345.638,VALID,23.1935,VALID,177,VALID,0.847266,
2017-01-01, 15:27:04,VALID,916.721,VALID,0,VALID,85.7939,VALID,348.324,VALID,23.3691,VALID,167,VALID,0.924219,
2017-01-01, 15:28:04,VALID,916.755,VALID,0,VALID,81.4333,VALID,360.143,VALID,23.3319,VALID,136,VALID,1.96523,
2017-01-01, 15:29:04,VALID,916.775,VALID,0,VALID,84.0634,VALID,358.424,VALID,23.2715,VALID,121,VALID,0.952344,
2017-01-01, 15:30:04,VALID,916.753,VALID,0,VALID,81.2199,VALID,352.085,VALID,23.2715,VALID,125,VALID,1.94609,
2017-01-01, 15:31:04,VALID,916.735,VALID,0,VALID,82.3481,VALID,352.085,VALID,23.2325,VALID,132,VALID,2.15703,
2017-01-01, 15:32:04,VALID,916.758,VALID,0,VALID,81.2809,VALID,359.068,VALID,23.1349,VALID,142,VALID,2.18242,
2017-01-01, 15:33:04,VALID,916.744,VALID,0,VALID,83.9109,VALID,359.928,VALID,23.1544,VALID,124,VALID,1.53906,
2017-01-01, 15:34:04,VALID,916.783,VALID,0,VALID,80.7853,VALID,363.259,VALID,23.2325,VALID,136,VALID,2.33594,
2017-01-01, 15:35:04,VALID,916.767,VALID,0,VALID,82.5616,VALID,371.961,VALID,23.1349,VALID,134,VALID,2.1625,
2017-01-01, 15:36:04,VALID,916.771,VALID,0,VALID,80.9607,VALID,373.788,VALID,23.1544,VALID,142,VALID,2.00352,
2017-01-01, 15:37:04,VALID,916.719,VALID,0,VALID,80.0078,VALID,382.491,VALID,23.2325,VALID,143,VALID,1.58828,
2017-01-01, 15:38:04,VALID,916.709,VALID,0,VALID,79.2607,VALID,387.54,VALID,23.2307,VALID,138,VALID,1.73125,
2017-01-01, 15:39:04,VALID,916.692,VALID,0,VALID,79.4436,VALID,391.301,VALID,23.2502,VALID,155,VALID,2.22031,
2017-01-01, 15:40:04,VALID,916.693,VALID,0,VALID,81.3342,VALID,395.061,VALID,23.213,VALID,152,VALID,1.52852,
2017-01-01, 15:41:04,VALID,916.645,VALID,0,VALID,81.0064,VALID,394.202,VALID,23.3301,VALID,133,VALID,1.90117,
2017-01-01, 15:42:04,VALID,916.652,VALID,0,VALID,82.2872,VALID,397.103,VALID,23.3887,VALID,102,VALID,2.03477,
2017-01-01, 15:43:04,VALID,916.671,VALID,0,VALID,82.0356,VALID,397.855,VALID,23.4845,VALID,77,VALID,1.95391,
2017-01-01, 15:44:04,VALID,916.648,VALID,0,VALID,79.2835,VALID,395.491,VALID,23.5839,VALID,125,VALID,1.89102,
2017-01-01, 15:45:04,VALID,916.66,VALID,0,VALID,79.0929,VALID,396.136,VALID,23.6211,VALID,132,VALID,1.49844,
2017-01-01, 15:46:04,VALID,916.626,VALID,0,VALID,79.8019,VALID,397.532,VALID,23.7578,VALID,155,VALID,1.06875,
2017-01-01, 15:47:04,VALID,916.656,VALID,0,VALID,77.7436,VALID,399.036,VALID,23.8358,VALID,142,VALID,1.09375,
2017-01-01, 15:48:04,VALID,916.629,VALID,0,VALID,82.2414,VALID,397.532,VALID,23.992,VALID,50,VALID,1.35117,
2017-01-01, 15:49:04,VALID,916.635,VALID,0,VALID,76.6839,VALID,394.094,VALID,23.9335,VALID,100,VALID,2.34414,
2017-01-01, 15:50:04,VALID,916.655,VALID,0,VALID,79.4741,VALID,403.334,VALID,23.8377,VALID,100,VALID,1.23945,
2017-01-01, 15:51:04,VALID,916.63,VALID,0,VALID,78.2467,VALID,411.285,VALID,23.992,VALID,123,VALID,0.0234375,
2017-01-01, 15:52:04,VALID,916.627,VALID,0,VALID,77.7893,VALID,421.169,VALID,24.1287,VALID,122,VALID,0.323828,
2017-01-01, 15:53:04,VALID,916.676,VALID,0,VALID,75.5023,VALID,417.194,VALID,24.0311,VALID,122,VALID,2.38164,
2017-01-01, 15:54:04,VALID,916.674,VALID,0,VALID,75.9521,VALID,425.789,VALID,23.9139,VALID,160,VALID,1.26875,
2017-01-01, 15:55:04,VALID,916.663,VALID,0,VALID,76.5315,VALID,417.301,VALID,23.9139,VALID,151,VALID,2.44922,
2017-01-01, 15:56:04,VALID,916.697,VALID,0,VALID,78.3687,VALID,406.128,VALID,23.8358,VALID,136,VALID,1.81016,
2017-01-01, 15:57:04,VALID,916.693,VALID,0,VALID,77.7893,VALID,395.276,VALID,23.7773,VALID,73,VALID,2.03945,
2017-01-01, 15:58:04,VALID,916.716,VALID,0,VALID,79.1082,VALID,413.434,VALID,23.8358,VALID,141,VALID,1.53594,
2017-01-01, 15:59:04,VALID,916.716,VALID,0,VALID,78.1705,VALID,416.549,VALID,23.8944,VALID,172,VALID,0.907031,
2017-01-01, 16:00:04,VALID,916.726,VALID,0,VALID,76.6153,VALID,424.822,VALID,24.0292,VALID,185,VALID,0.999609,
2017-01-01, 16:01:04,VALID,916.775,VALID,0,VALID,77.0651,VALID,412.252,VALID,24.1659,VALID,166,VALID,1.80742,
2017-01-01, 16:02:04,VALID,916.714,VALID,0,VALID,74.9687,VALID,408.706,VALID,24.3044,VALID,189,VALID,0.199219,
2017-01-01, 16:03:04,VALID,916.712,VALID,0,VALID,75.8911,VALID,408.491,VALID,24.3435,VALID,139,VALID,0.00429688,
2017-01-01, 16:04:04,VALID,916.725,VALID,0,VALID,74.3969,VALID,431.484,VALID,24.3026,VALID,162,VALID,0.843359,
2017-01-01, 16:05:04,VALID,916.696,VALID,0,VALID,74.9992,VALID,441.046,VALID,24.3416,VALID,164,VALID,0,
2017-01-01, 16:06:04,VALID,916.702,VALID,0,VALID,76.4095,VALID,451.145,VALID,24.4002,VALID,120,VALID,0,
2017-01-01, 16:07:04,VALID,916.657,VALID,0,VALID,76.2189,VALID,452.757,VALID,24.5368,VALID,131,VALID,0.936719,
2017-01-01, 16:08:04,VALID,916.675,VALID,0,VALID,75.6624,VALID,446.311,VALID,24.5564,VALID,95,VALID,0.655859,
2017-01-01, 16:09:04,VALID,916.713,VALID,0,VALID,74.0157,VALID,428.905,VALID,24.4606,VALID,106,VALID,0.0417969,
2017-01-01, 16:10:04,VALID,916.733,VALID,0,VALID,75.9063,VALID,412.896,VALID,24.4411,VALID,124,VALID,0,
2017-01-01, 16:11:04,VALID,916.784,VALID,0,VALID,75.1516,VALID,387.97,VALID,24.5582,VALID,159,VALID,1.10039,
2017-01-01, 16:12:04,VALID,916.786,VALID,0,VALID,73.6117,VALID,355.953,VALID,24.814,VALID,196,VALID,0.455859,
2017-01-01, 16:13:04,VALID,916.818,VALID,0,VALID,73.261,VALID,312.761,VALID,24.9878,VALID,217,VALID,0.00585938,
2017-01-01, 16:14:04,VALID,916.863,VALID,0,VALID,74.7857,VALID,264.09,VALID,25.0855,VALID,235,VALID,1.10625,
2017-01-01, 16:15:04,VALID,916.92,VALID,0,VALID,71.3628,VALID,221.221,VALID,25.0855,VALID,171,VALID,1.23398,
2017-01-01, 16:16:04,VALID,916.923,VALID,0,VALID,70.6996,VALID,181.468,VALID,25.1422,VALID,177,VALID,1.33945,
2017-01-01, 16:17:04,VALID,916.947,VALID,0,VALID,71.1341,VALID,155.252,VALID,25.1422,VALID,188,VALID,0.00585938,
2017-01-01, 16:18:04,VALID,916.975,VALID,0,VALID,71.0579,VALID,152.674,VALID,25.1812,VALID,181,VALID,1.50039,
2017-01-01, 16:19:04,VALID,916.988,VALID,0,VALID,70.4861,VALID,143.971,VALID,25.1031,VALID,174,VALID,1.22344,
2017-01-01, 16:20:04,VALID,916.977,VALID,0,VALID,71.561,VALID,136.45,VALID,24.9859,VALID,157,VALID,0.290625,
2017-01-01, 16:21:04,VALID,916.991,VALID,0,VALID,71.3628,VALID,136.773,VALID,24.9859,VALID,144,VALID,1.25312,
2017-01-01, 16:22:04,VALID,916.959,VALID,0,VALID,71.8431,VALID,138.921,VALID,24.8492,VALID,112,VALID,0.43125,
2017-01-01, 16:23:04,VALID,916.98,VALID,0,VALID,72.6969,VALID,138.169,VALID,25.0074,VALID,160,VALID,0.626562,
2017-01-01, 16:24:04,VALID,916.975,VALID,0,VALID,70.2117,VALID,132.367,VALID,25.0445,VALID,130,VALID,0.00585938,
2017-01-01, 16:25:04,VALID,916.953,VALID,0,VALID,69.9753,VALID,123.235,VALID,25.0074,VALID,129,VALID,1.11719,
2017-01-01, 16:26:04,VALID,916.941,VALID,0,VALID,72.0565,VALID,118.078,VALID,24.9078,VALID,164,VALID,1.31602,
2017-01-01, 16:27:04,VALID,916.965,VALID,0,VALID,73.0171,VALID,115.392,VALID,24.7907,VALID,150,VALID,2.69141,
2017-01-01, 16:28:04,VALID,917.001,VALID,0,VALID,70.3794,VALID,116.036,VALID,24.6912,VALID,155,VALID,2.43828,
2017-01-01, 16:29:04,VALID,917.009,VALID,0,VALID,71.0731,VALID,118.722,VALID,24.5935,VALID,165,VALID,0,
2017-01-01, 16:30:04,VALID,916.982,VALID,0,VALID,71.5305,VALID,120.012,VALID,24.773,VALID,123,VALID,0,
2017-01-01, 16:31:04,VALID,916.939,VALID,0,VALID,69.8839,VALID,122.053,VALID,24.9274,VALID,107,VALID,0,
2017-01-01, 16:32:04,VALID,916.985,VALID,0,VALID,71.7973,VALID,124.202,VALID,24.9859,VALID,103,VALID,0.53125,
2017-01-01, 16:33:04,VALID,916.983,VALID,0,VALID,69.5942,VALID,129.359,VALID,24.8102,VALID,114,VALID,2.04727,
2017-01-01, 16:34:04,VALID,916.961,VALID,0,VALID,73.7261,VALID,132.797,VALID,24.7302,VALID,85,VALID,0.712109,
2017-01-01, 16:35:04,VALID,916.949,VALID,0,VALID,70.8901,VALID,138.277,VALID,24.9469,VALID,73,VALID,0.985156,
2017-01-01, 16:36:04,VALID,916.932,VALID,0,VALID,69.9753,VALID,143.971,VALID,25.1226,VALID,353,VALID,0.676953,
2017-01-01, 16:37:04,VALID,916.89,VALID,0,VALID,69.0224,VALID,157.509,VALID,25.3374,VALID,4,VALID,0.207031,
2017-01-01, 16:38:04,VALID,916.928,VALID,0,VALID,69.335,VALID,186.088,VALID,25.4546,VALID,15,VALID,0,
2017-01-01, 16:39:04,VALID,916.957,VALID,0,VALID,69.1901,VALID,233.147,VALID,25.6089,VALID,328,VALID,0,
2017-01-01, 16:40:04,VALID,916.943,VALID,0,VALID,68.9004,VALID,299.761,VALID,25.8823,VALID,328,VALID,0,
2017-01-01, 16:41:04,VALID,916.921,VALID,0,VALID,65.973,VALID,380.127,VALID,25.9429,VALID,108,VALID,2.90664,
2017-01-01, 16:42:04,VALID,916.953,VALID,0,VALID,68.9995,VALID,450.608,VALID,25.4917,VALID,79,VALID,0.934375,
2017-01-01, 16:43:04,VALID,916.967,VALID,0,VALID,69.7238,VALID,535.164,VALID,25.355,VALID,98,VALID,2.07109,
2017-01-01, 16:44:04,VALID,916.973,VALID,0,VALID,70.2803,VALID,588.348,VALID,25.2769,VALID,129,VALID,2.3082,
2017-01-01, 16:45:04,VALID,916.973,VALID,0,VALID,70.0211,VALID,616.497,VALID,25.1012,VALID,108,VALID,1.93789,
2017-01-01, 16:46:04,VALID,916.961,VALID,0,VALID,73.6498,VALID,610.588,VALID,24.9645,VALID,86,VALID,1.88242,
2017-01-01, 16:47:04,VALID,916.964,VALID,0,VALID,70.5928,VALID,614.563,VALID,25.0445,VALID,47,VALID,0.0195313,
2017-01-01, 16:48:04,VALID,916.949,VALID,0,VALID,69.8534,VALID,633.58,VALID,25.1598,VALID,47,VALID,0,
2017-01-01, 16:49:04,VALID,916.914,VALID,0,VALID,71.9955,VALID,639.275,VALID,25.3746,VALID,92,VALID,1.75586,
2017-01-01, 16:50:04,VALID,916.972,VALID,0,VALID,67.795,VALID,642.498,VALID,25.4722,VALID,147,VALID,2.67695,
2017-01-01, 16:51:04,VALID,916.982,VALID,0,VALID,70.3184,VALID,644.754,VALID,25.5113,VALID,153,VALID,0.598828,
2017-01-01, 16:52:04,VALID,916.982,VALID,0,VALID,67.1852,VALID,647.548,VALID,25.5503,VALID,156,VALID,1.78711,
2017-01-01, 16:53:04,VALID,916.934,VALID,0,VALID,68.1838,VALID,656.465,VALID,25.5113,VALID,187,VALID,1.32891,
2017-01-01, 16:54:04,VALID,916.914,VALID,0,VALID,67.9932,VALID,671.937,VALID,25.7866,VALID,189,VALID,0,
2017-01-01, 16:55:04,VALID,916.893,VALID,0,VALID,69.7009,VALID,692.673,VALID,26.0992,VALID,65,VALID,0.601953,
2017-01-01, 16:56:04,VALID,916.913,VALID,0,VALID,66.9488,VALID,700.087,VALID,26.1382,VALID,149,VALID,1.54648,
2017-01-01, 16:57:04,VALID,916.935,VALID,0,VALID,67.269,VALID,704.384,VALID,26.1382,VALID,123,VALID,0.0546875,
2017-01-01, 16:58:04,VALID,916.948,VALID,0,VALID,67.0861,VALID,713.946,VALID,25.9234,VALID,87,VALID,1.10117,
2017-01-01, 16:59:04,VALID,916.971,VALID,0,VALID,67.7722,VALID,703.954,VALID,25.8843,VALID,143,VALID,0.0417969,
2017-01-01, 17:00:04,VALID,916.989,VALID,0,VALID,66.7583,VALID,708.252,VALID,26.2164,VALID,45,VALID,1.79414,
2017-01-01, 17:01:04,VALID,916.981,VALID,0,VALID,67.1547,VALID,708.897,VALID,26.3531,VALID,25,VALID,0.796094,
2017-01-01, 17:02:04,VALID,916.955,VALID,0,VALID,66.4076,VALID,708.574,VALID,26.5485,VALID,15,VALID,0.209375,
2017-01-01, 17:03:04,VALID,916.99,VALID,0,VALID,64.4865,VALID,710.831,VALID,26.6266,VALID,86,VALID,1.34687,
2017-01-01, 17:04:04,VALID,916.954,VALID,0,VALID,66.8421,VALID,705.673,VALID,26.605,VALID,347,VALID,0.05625,
2017-01-01, 17:05:04,VALID,917.016,VALID,0,VALID,64.395,VALID,716.525,VALID,26.7634,VALID,149,VALID,2.36602,
2017-01-01, 17:06:04,VALID,916.992,VALID,0,VALID,64.9591,VALID,701.698,VALID,26.4508,VALID,152,VALID,0.351563,
2017-01-01, 17:07:04,VALID,916.963,VALID,0,VALID,65.6757,VALID,721.575,VALID,26.3336,VALID,143,VALID,3.53555,
2017-01-01, 17:08:04,VALID,916.898,VALID,0,VALID,68.0847,VALID,724.798,VALID,25.9995,VALID,77,VALID,2.90937,
2017-01-01, 17:09:04,VALID,916.962,VALID,0,VALID,68.626,VALID,721.252,VALID,25.8452,VALID,111,VALID,2.35586,
2017-01-01, 17:10:04,VALID,916.917,VALID,0,VALID,65.7367,VALID,730.17,VALID,25.8843,VALID,107,VALID,1.08281,
2017-01-01, 17:11:04,VALID,916.953,VALID,0,VALID,67.5511,VALID,730.492,VALID,25.9038,VALID,125,VALID,1.90898,
2017-01-01, 17:12:04,VALID,916.888,VALID,0,VALID,67.0098,VALID,748.972,VALID,25.8257,VALID,146,VALID,1.61992,
2017-01-01, 17:13:04,VALID,916.915,VALID,0,VALID,66.8726,VALID,757.675,VALID,25.9234,VALID,191,VALID,1.16992,
2017-01-01, 17:14:04,VALID,916.914,VALID,0,VALID,65.4775,VALID,770.461,VALID,26.1362,VALID,182,VALID,0.7375,
2017-01-01, 17:15:04,VALID,916.937,VALID,0,VALID,64.5093,VALID,780.345,VALID,26.1187,VALID,155,VALID,1.95547,
2017-01-01, 17:16:04,VALID,916.922,VALID,0,VALID,64.5551,VALID,775.833,VALID,26.1362,VALID,147,VALID,0.577344,
2017-01-01, 17:17:04,VALID,916.921,VALID,0,VALID,65.4318,VALID,788.618,VALID,26.2925,VALID,180,VALID,1.62695,
2017-01-01, 17:18:04,VALID,916.927,VALID,0,VALID,64.5856,VALID,770.675,VALID,26.2144,VALID,163,VALID,1.58711,
2017-01-01, 17:19:04,VALID,916.925,VALID,0,VALID,65.3937,VALID,767.022,VALID,26.312,VALID,156,VALID,0.709375,
2017-01-01, 17:20:04,VALID,916.851,VALID,0,VALID,64.5322,VALID,768.097,VALID,26.0581,VALID,114,VALID,0.650781,
2017-01-01, 17:21:04,VALID,916.852,VALID,0,VALID,67.7264,VALID,763.047,VALID,26.1753,VALID,116,VALID,2.09414,
2017-01-01, 17:22:04,VALID,916.826,VALID,0,VALID,65.1345,VALID,761.65,VALID,26.1167,VALID,134,VALID,1.12266,
2017-01-01, 17:23:04,VALID,916.805,VALID,0,VALID,65.6833,VALID,770.031,VALID,26.1167,VALID,112,VALID,2.35547,
2017-01-01, 17:24:04,VALID,916.794,VALID,0,VALID,63.221,VALID,770.568,VALID,26.2339,VALID,90,VALID,1.96367,
2017-01-01, 17:25:04,VALID,916.782,VALID,0,VALID,65.1192,VALID,743.385,VALID,26.0972,VALID,105,VALID,2.24102,
2017-01-01, 17:26:04,VALID,916.778,VALID,0,VALID,66.9183,VALID,734.253,VALID,26.3316,VALID,166,VALID,0.276172,
2017-01-01, 17:27:04,VALID,916.739,VALID,0,VALID,63.8537,VALID,730.17,VALID,26.2925,VALID,121,VALID,2.39648,
2017-01-01, 17:28:04,VALID,916.763,VALID,0,VALID,64.5551,VALID,736.079,VALID,26.4097,VALID,166,VALID,0.392188,
2017-01-01, 17:29:04,VALID,916.729,VALID,0,VALID,63.1752,VALID,746.501,VALID,26.3511,VALID,121,VALID,3.37031,
2017-01-01, 17:30:04,VALID,916.773,VALID,0,VALID,66.095,VALID,748.113,VALID,26.1362,VALID,161,VALID,2.04688,
2017-01-01, 17:31:04,VALID,916.751,VALID,0,VALID,65.7367,VALID,755.204,VALID,26.3316,VALID,141,VALID,0.425391,
2017-01-01, 17:32:04,VALID,916.75,VALID,0,VALID,65.1192,VALID,765.303,VALID,26.312,VALID,100,VALID,1.28945,
2017-01-01, 17:33:04,VALID,916.716,VALID,0,VALID,62.3977,VALID,406.557,VALID,26.5269,VALID,174,VALID,0.588672,
2017-01-01, 17:34:04,VALID,916.697,VALID,0,VALID,62.9465,VALID,407.202,VALID,26.6441,VALID,126,VALID,0,
2017-01-01, 17:35:04,VALID,916.702,VALID,0,VALID,62.2757,VALID,627.241,VALID,26.8395,VALID,160,VALID,0,
2017-01-01, 17:36:04,VALID,916.721,VALID,0,VALID,62.6492,VALID,785.61,VALID,27.1521,VALID,56,VALID,0.997656,
2017-01-01, 17:37:04,VALID,916.778,VALID,0,VALID,62.0622,VALID,809.462,VALID,27.2281,VALID,16,VALID,0.339844,
2017-01-01, 17:38:04,VALID,916.715,VALID,0,VALID,62.9161,VALID,907.126,VALID,27.2302,VALID,44,VALID,1.53125,
2017-01-01, 17:39:04,VALID,916.714,VALID,0,VALID,63.8537,VALID,361.539,VALID,27.0935,VALID,47,VALID,0.307031,
2017-01-01, 17:40:04,VALID,916.698,VALID,0,VALID,64.7152,VALID,330.704,VALID,27.0328,VALID,39,VALID,2.45195,
2017-01-01, 17:41:04,VALID,916.718,VALID,0,VALID,63.221,VALID,368.093,VALID,26.7984,VALID,41,VALID,0.494531,
2017-01-01, 17:42:04,VALID,916.689,VALID,0,VALID,63.5107,VALID,330.596,VALID,26.5269,VALID,28,VALID,0.0988281,
2017-01-01, 17:43:04,VALID,916.637,VALID,0,VALID,64.9972,VALID,443.947,VALID,26.312,VALID,8,VALID,2.37227,
2017-01-01, 17:44:04,VALID,916.614,VALID,0,VALID,65.1802,VALID,309.431,VALID,26.1558,VALID,12,VALID,1.45313,
2017-01-01, 17:45:04,VALID,916.701,VALID,0,VALID,63.4649,VALID,286.975,VALID,26.1968,VALID,315,VALID,0.0195313,
2017-01-01, 17:46:04,VALID,916.659,VALID,0,VALID,64.4331,VALID,280.636,VALID,26.1382,VALID,292,VALID,0.0574219,
2017-01-01, 17:47:04,VALID,916.68,VALID,0,VALID,63.4497,VALID,275.372,VALID,26.1382,VALID,349,VALID,0,
2017-01-01, 17:48:04,VALID,916.648,VALID,0,VALID,64.3264,VALID,275.801,VALID,26.1558,VALID,346,VALID,0,
2017-01-01, 17:49:04,VALID,916.639,VALID,0,VALID,64.2502,VALID,272.471,VALID,26.2164,VALID,239,VALID,0,
2017-01-01, 17:50:04,VALID,916.628,VALID,0,VALID,64.9896,VALID,265.487,VALID,26.3336,VALID,313,VALID,0,
2017-01-01, 17:51:04,VALID,916.594,VALID,0,VALID,66.1026,VALID,297.612,VALID,26.3316,VALID,49,VALID,1.33281,
2017-01-01, 17:52:04,VALID,916.56,VALID,0,VALID,63.3582,VALID,845.24,VALID,26.2554,VALID,49,VALID,2.05234,
2017-01-01, 17:53:04,VALID,916.549,VALID,0,VALID,64.921,VALID,300.191,VALID,26.1753,VALID,15,VALID,0.285547,
2017-01-01, 17:54:04,VALID,916.569,VALID,0,VALID,64.3111,VALID,895.629,VALID,26.31,VALID,76,VALID,0.981641,
2017-01-01, 17:55:04,VALID,916.556,VALID,0,VALID,63.7623,VALID,690.739,VALID,26.2905,VALID,68,VALID,0.310547,
2017-01-01, 17:56:04,VALID,916.523,VALID,0,VALID,68.9081,VALID,215.957,VALID,26.2514,VALID,43,VALID,1.46992,
2017-01-01, 17:57:04,VALID,916.565,VALID,0,VALID,66.56,VALID,203.279,VALID,26.4292,VALID,8,VALID,1.69844,
2017-01-01, 17:58:04,VALID,916.583,VALID,0,VALID,62.6721,VALID,187.162,VALID,26.3882,VALID,28,VALID,0.507813,
2017-01-01, 17:59:04,VALID,916.575,VALID,0,VALID,63.3582,VALID,175.237,VALID,26.2534,VALID,358,VALID,0.0078125,
2017-01-01, 18:00:04,VALID,916.59,VALID,0,VALID,68.6336,VALID,169.435,VALID,26.1753,VALID,20,VALID,0.571875,
2017-01-01, 18:01:04,VALID,916.562,VALID,0,VALID,69.983,VALID,167.178,VALID,26.1362,VALID,20,VALID,0.196484,
2017-01-01, 18:02:04,VALID,916.565,VALID,0,VALID,71.1112,VALID,167.931,VALID,26.2319,VALID,33,VALID,0.35625,
2017-01-01, 18:03:04,VALID,916.588,VALID,0,VALID,70.8444,VALID,171.154,VALID,26.2925,VALID,3,VALID,0.503125,
2017-01-01, 18:04:04,VALID,916.55,VALID,0,VALID,69.8,VALID,176.418,VALID,26.1753,VALID,12,VALID,0.150781,
2017-01-01, 18:05:04,VALID,916.532,VALID,0,VALID,71.4771,VALID,183.187,VALID,26.1558,VALID,33,VALID,0.0273438,
2017-01-01, 18:06:04,VALID,916.522,VALID,0,VALID,71.1722,VALID,189.956,VALID,26.1362,VALID,29,VALID,0.00195313,
2017-01-01, 18:07:04,VALID,916.528,VALID,0,VALID,70.852,VALID,197.369,VALID,26.1167,VALID,39,VALID,0.0355469,
2017-01-01, 18:08:04,VALID,916.539,VALID,0,VALID,71.7363,VALID,203.386,VALID,26.1753,VALID,12,VALID,0,
2017-01-01, 18:09:04,VALID,916.539,VALID,0,VALID,69.4798,VALID,208.114,VALID,26.2925,VALID,321,VALID,0,
2017-01-01, 18:10:04,VALID,916.546,VALID,0,VALID,69.6704,VALID,218.858,VALID,26.2925,VALID,311,VALID,0,
2017-01-01, 18:11:04,VALID,916.551,VALID,0,VALID,70.9206,VALID,232.718,VALID,26.2339,VALID,311,VALID,0,
2017-01-01, 18:12:04,VALID,916.542,VALID,0,VALID,70.852,VALID,243.462,VALID,26.31,VALID,326,VALID,0,
2017-01-01, 18:13:04,VALID,916.547,VALID,0,VALID,68.7632,VALID,254.313,VALID,26.4292,VALID,351,VALID,0,
2017-01-01, 18:14:04,VALID,916.523,VALID,0,VALID,69.2816,VALID,264.628,VALID,26.5269,VALID,357,VALID,0,